QPF
0.03 0.05 0.07 0.07 0.05 0.02 0.00 0.00 0.00 0.01 0.02 0.05 0.07 0.06 0.06 0.05 0.06 0.08 0.12 0.22 0.26 0.28 0.29 0.28 0.25 0.16 0.12 0.10 0.09 0.09 0.05 0.03 0.01 0.00 0.01 0.00 0.00 0.00 0.00 0.00 0.00 0.00 0.00
0.01 0.02 0.04 0.06 0.06 0.03 0.01 0.00 0.01 0.04 0.06 0.11 0.18 0.19 0.17 0.12 0.10 0.11 0.13 0.16 0.18 0.19 0.20 0.27 0.30 0.25 0.21 0.17 0.11 0.10 0.09 0.06 0.01 0.01 0.02 0.01 0.01 0.00 0.00 0.00 0.00 0.00 0.00
0.01 0.01 0.02 0.03 0.04 0.03 0.01 0.00 0.02 0.10 0.18 0.23 0.30 0.33 0.28 0.21 0.16 0.13 0.15 0.16 0.17 0.16 0.15 0.18 0.20 0.18 0.15 0.14 0.12 0.09 0.11 0.10 0.05 0.02 0.04 0.06 0.07 0.04 0.01 0.00 0.00 0.00 0.00
0.00 0.01 0.01 0.01 0.02 0.01 0.01 0.03 0.09 0.24 0.40 0.44 0.42 0.34 0.25 0.21 0.19 0.19 0.18 0.16 0.14 0.13 0.12 0.12 0.10 0.08 0.07 0.08 0.07 0.03 0.06 0.11 0.09 0.06 0.04 0.06 0.07 0.07 0.07 0.02 0.00 0.00 0.00
0.01 0.01 0.01 0.01 0.01 0.02 0.04 0.10 0.25 0.45 0.61 0.63 0.52 0.40 0.29 0.23 0.21 0.19 0.19 0.16 0.13 0.12 0.11 0.09 0.07 0.04 0.04 0.05 0.04 0.02 0.03 0.05 0.09 0.08 0.08 0.09 0.10 0.08 0.07 0.07 0.03 0.01 0.00
0.01 0.02 0.04 0.05 0.07 0.09 0.12 0.21 0.33 0.52 0.64 0.71 0.66 0.57 0.47 0.35 0.25 0.20 0.17 0.13 0.10 0.09 0.09 0.07 0.06 0.05 0.04 0.02 0.02 0.02 0.02 0.02 0.03 0.05 0.07 0.09 0.10 0.11 0.08 0.07 0.05 0.03 0.01
0.02 0.04 0.06 0.07 0.09 0.13 0.19 0.24 0.32 0.45 0.61 0.68 0.68 0.64 0.56 0.43 0.31 0.24 0.18 0.12 0.09 0.07 0.08 0.06 0.04 0.03 0.02 0.01 0.00 0.00 0.01 0.01 0.01 0.02 0.04 0.07 0.09 0.11 0.10 0.08 0.08 0.05 0.02
0.04 0.04 0.05 0.06 0.08 0.12 0.17 0.21 0.30 0.40 0.48 0.51 0.51 0.48 0.47 0.41 0.32 0.23 0.17 0.12 0.09 0.07 0.05 0.04 0.02 0.01 0.00 0.00 0.00 0.00 0.00 0.00 0.01 0.01 0.03 0.05 0.08 0.10 0.09 0.09 0.09 0.08 0.05
0.03 0.03 0.04 0.05 0.08 0.11 0.19 0.26 0.31 0.33 0.35 0.37 0.39 0.41 0.39 0.34 0.26 0.18 0.12 0.09 0.06 0.03 0.02 0.01 0.00 0.00 0.00 0.00 0.00 0.00 0.00 0.00 0.01 0.01 0.02 0.03 0.06 0.07 0.08 0.08 0.08 0.08 0.07
0.03 0.02 0.05 0.07 0.10 0.11 0.13 0.16 0.20 0.25 0.29 0.33 0.36 0.35 0.30 0.24 0.18 0.14 0.10 0.07 0.04 0.02 0.01 0.00 0.00 0.00 0.00 0.00 0.00 0.00 0.00 0.00 0.01 0.01 0.02 0.04 0.06 0.08 0.09 0.10 0.10 0.09 0.06
0.07 0.05 0.07 0.10 0.14 0.15 0.12 0.12 0.14 0.17 0.23 0.26 0.29 0.26 0.21 0.17 0.14 0.12 0.09 0.06 0.03 0.02 0.01 0.00 0.00 0.00 0.00 0.00 0.00 0.00 0.00 0.00 0.00 0.00 0.01 0.03 0.06 0.10 0.12 0.12 0.11 0.09 0.08
0.10 0.07 0.09 0.15 0.17 0.15 0.12 0.12 0.15 0.19 0.21 0.21 0.21 0.18 0.16 0.13 0.12 0.10 0.07 0.04 0.02 0.01 0.01 0.00 0.00 0.00 0.00 0.00 0.00 0.01 0.00 0.00 0.01 0.00 0.00 0.01 0.03 0.04 0.06 0.08 0.08 0.09 0.09
0.09 0.08 0.09 0.15 0.15 0.13 0.12 0.12 0.14 0.19 0.20 0.17 0.17 0.16 0.15 0.14 0.14 0.09 0.04 0.02 0.01 0.01 0.01 0.01 0.01 0.01 0.01 0.01 0.01 0.01 0.01 0.00 0.00 0.00 0.00 0.01 0.01 0.02 0.04 0.05 0.06 0.07 0.07
0.09 0.09 0.10 0.11 0.12 0.12 0.11 0.12 0.13 0.17 0.19 0.18 0.18 0.15 0.14 0.12 0.09 0.05 0.03 0.02 0.02 0.02 0.01 0.01 0.01 0.02 0.03 0.04 0.04 0.03 0.02 0.01 0.00 0.00 0.00 0.00 0.01 0.02 0.04 0.05 0.07 0.09 0.10
0.10 0.09 0.08 0.09 0.09 0.10 0.12 0.13 0.14 0.16 0.17 0.16 0.14 0.10 0.08 0.06 0.05 0.04 0.03 0.02 0.03 0.04 0.03 0.03 0.03 0.03 0.05 0.07 0.08 0.06 0.04 0.03 0.01 0.00 0.00 0.00 0.01 0.01 0.03 0.03 0.07 0.10 0.11
0.05 0.04 0.03 0.03 0.03 0.04 0.05 0.07 0.09 0.11 0.13 0.14 0.11 0.09 0.07 0.06 0.05 0.04 0.03 0.03 0.03 0.03 0.03 0.02 0.03 0.03 0.04 0.07 0.07 0.06 0.06 0.06 0.04 0.02 0.00 0.00 0.00 0.00 0.01 0.01 0.03 0.06 0.08
0.01 0.00 0.00 0.00 0.00 0.01 0.01 0.01 0.01 0.02 0.03 0.04 0.04 0.04 0.04 0.03 0.03 0.02 0.02 0.02 0.02 0.02 0.01 0.01 0.01 0.01 0.03 0.04 0.02 0.02 0.07 0.11 0.08 0.05 0.02 0.00 0.00 0.00 0.00 0.00 0.01 0.01 0.01
0.00 0.00 0.00 0.00 0.00 0.00 0.00 0.00 0.00 0.00 0.00 0.00 0.00 0.01 0.01 0.00 0.00 0.00 0.00 0.00 0.00 0.00 0.00 0.00 0.00 0.00 0.01 0.02 0.01 0.02 0.08 0.16 0.17 0.12 0.05 0.02 0.01 0.01 0.01 0.00 0.01 0.01 0.01
0.00 0.00 0.00 0.00 0.00 0.00 0.00 0.00 0.00 0.00 0.00 0.00 0.00 0.00 0.00 0.00 0.00 0.00 0.00 0.00 0.00 0.00 0.00 0.00 0.00 0.00 0.00 0.00 0.01 0.02 0.09 0.15 0.17 0.14 0.10 0.08 0.05 0.05 0.02 0.01 0.02 0.01 0.01
0.00 0.00 0.00 0.00 0.00 0.00 0.00 0.00 0.00 0.00 0.00 0.00 0.00 0.00 0.00 0.00 0.00 0.00 0.00 0.00 0.00 0.00 0.00 0.00 0.00 0.00 0.00 0.00 0.00 0.02 0.04 0.07 0.08 0.08 0.09 0.14 0.12 0.10 0.06 0.02 0.03 0.05 0.03
0.00 0.00 0.00 0.00 0.00 0.00 0.00 0.00 0.00 0.00 0.00 0.00 0.00 0.00 0.00 0.00 0.00 0.00 0.00 0.00 0.00 0.00 0.00 0.00 0.00 0.00 0.00 0.00 0.00 0.01 0.02 0.03 0.05 0.05 0.06 0.06 0.09 0.08 0.07 0.03 0.04 0.06 0.03
0.00 0.00 0.00 0.00 0.00 0.00 0.00 0.00 0.00 0.00 0.00 0.00 0.00 0.00 0.00 0.00 0.00 0.00 0.00 0.00 0.00 0.00 0.00 0.00 0.00 0.00 0.00 0.00 0.00 0.00 0.00 0.01 0.02 0.02 0.02 0.02 0.03 0.04 0.04 0.03 0.04 0.03 0.02
0.00 0.00 0.00 0.00 0.00 0.00 0.00 0.00 0.00 0.00 0.00 0.00 0.00 0.00 0.00 0.00 0.00 0.00 0.00 0.00 0.00 0.00 0.00 0.00 0.00 0.00 0.00 0.00 0.00 0.00 0.00 0.00 0.00 0.00 0.00 0.00 0.01 0.01 0.03 0.03 0.03 0.03 0.03
0.00 0.00 0.00 0.00 0.00 0.00 0.00 0.00 0.00 0.00 0.00 0.00 0.00 0.00 0.00 0.00 0.00 0.00 0.00 0.00 0.00 0.00 0.00 0.00 0.00 0.00 0.00 0.00 0.00 0.01 0.01 0.01 0.01 0.01 0.01 0.01 0.01 0.02 0.03 0.03 0.03 0.04 0.04
0.00 0.00 0.00 0.00 0.00 0.00 0.00 0.00 0.00 0.00 0.00 0.00 0.00 0.00 0.00 0.00 0.00 0.00 0.00 0.00 0.00 0.00 0.00 0.00 0.00 0.00 0.00 0.00 0.00 0.00 0.01 0.01 0.01 0.01 0.03 0.03 0.03 0.03 0.03 0.03 0.03 0.03 0.04
0.00 0.00 0.00 0.00 0.00 0.00 0.00 0.00 0.00 0.00 0.00 0.00 0.00 0.00 0.00 0.00 0.00 0.00 0.00 0.00 0.00 0.00 0.00 0.00 0.00 0.00 0.00 0.00 0.00 0.00 0.00 0.01 0.02 0.04 0.07 0.07 0.07 0.07 0.06 0.05 0.05 0.05 0.06
MSLP
1011.33 1010.59 1009.93 1009.38 1008.97 1008.72 1008.66 1008.77 1009.04 1009.46 1009.98 1010.56 1011.16 1011.72 1012.23 1012.66 1013.01 1013.29 1013.52 1013.72 1013.92 1014.14 1014.38 1014.64 1014.93 1015.22 1015.52 1015.79 1016.05 1016.29 1016.49 1016.66 1016.78 1016.88 1016.92 1016.94 1016.91 1016.86 1016.79 1016.72 1016.66 1016.60 1016.58
1011.79 1010.99 1010.25 1009.60 1009.08 1008.73 1008.56 1008.58 1008.79 1009.17 1009.66 1010.23 1010.84 1011.42 1011.96 1012.42 1012.80 1013.11 1013.35 1013.57 1013.77 1013.97 1014.20 1014.45 1014.71 1014.98 1015.26 1015.53 1015.79 1016.03 1016.24 1016.43 1016.59 1016.72 1016.82 1016.88 1016.90 1016.90 1016.86 1016.82 1016.78 1016.73 1016.70
1012.22 1011.39 1010.60 1009.89 1009.30 1008.88 1008.63 1008.59 1008.74 1009.07 1009.54 1010.09 1010.70 1011.29 1011.84 1012.31 1012.70 1013.01 1013.26 1013.46 1013.64 1013.83 1014.02 1014.23 1014.46 1014.71 1014.96 1015.21 1015.45 1015.68 1015.91 1016.12 1016.31 1016.48 1016.63 1016.75 1016.84 1016.89 1016.92 1016.92 1016.91 1016.89 1016.86
1012.59 1011.78 1010.98 1010.26 1009.64 1009.18 1008.90 1008.82 1008.94 1009.23 1009.67 1010.21 1010.79 1011.38 1011.91 1012.38 1012.75 1013.05 1013.27 1013.44 1013.59 1013.73 1013.88 1014.05 1014.23 1014.43 1014.65 1014.86 1015.09 1015.32 1015.54 1015.77 1016.00 1016.22 1016.41 1016.59 1016.74 1016.85 1016.94 1016.99 1017.02 1017.03 1017.02
1012.94 1012.16 1011.41 1010.71 1010.11 1009.66 1009.37 1009.28 1009.39 1009.66 1010.08 1010.59 1011.15 1011.70 1012.21 1012.64 1012.98 1013.23 1013.41 1013.53 1013.62 1013.71 1013.80 1013.91 1014.05 1014.20 1014.38 1014.57 1014.77 1014.99 1015.22 1015.46 1015.71 1015.95 1016.19 1016.41 1016.61 1016.78 1016.91 1017.00 1017.06 1017.09 1017.09
1013.30 1012.59 1011.89 1011.25 1010.71 1010.29 1010.03 1009.96 1010.06 1010.33 1010.72 1011.20 1011.72 1012.22 1012.67 1013.04 1013.32 1013.51 1013.62 1013.68 1013.71 1013.74 1013.77 1013.83 1013.92 1014.03 1014.17 1014.34 1014.53 1014.73 1014.96 1015.21 1015.46 1015.72 1015.98 1016.22 1016.45 1016.64 1016.79 1016.91 1016.98 1017.02 1017.03
1013.71 1013.07 1012.45 1011.89 1011.41 1011.05 1010.84 1010.78 1010.89 1011.14 1011.51 1011.94 1012.40 1012.84 1013.22 1013.51 1013.71 1013.82 1013.85 1013.84 1013.81 1013.77 1013.76 1013.78 1013.83 1013.92 1014.04 1014.19 1014.36 1014.56 1014.78 1015.02 1015.27 1015.52 1015.77 1016.02 1016.23 1016.43 1016.58 1016.70 1016.78 1016.81 1016.81
1014.19 1013.62 1013.09 1012.60 1012.19 1011.89 1011.72 1011.68 1011.79 1012.02 1012.34 1012.71 1013.09 1013.44 1013.72 1013.92 1014.03 1014.05 1014.01 1013.93 1013.84 1013.77 1013.72 1013.72 1013.76 1013.84 1013.95 1014.10 1014.27 1014.46 1014.66 1014.88 1015.10 1015.34 1015.56 1015.78 1015.97 1016.14 1016.28 1016.38 1016.44 1016.47 1016.46
1014.77 1014.25 1013.78 1013.35 1013.01 1012.75 1012.60 1012.57 1012.65 1012.84 1013.09 1013.38 1013.67 1013.91 1014.09 1014.19 1014.20 1014.14 1014.03 1013.90 1013.77 1013.67 1013.62 1013.61 1013.66 1013.75 1013.88 1014.03 1014.19 1014.37 1014.56 1014.75 1014.94 1015.14 1015.32 1015.49 1015.65 1015.78 1015.89 1015.96 1016.01 1016.03 1016.03
1015.40 1014.93 1014.49 1014.11 1013.79 1013.56 1013.41 1013.36 1013.40 1013.52 1013.69 1013.88 1014.06 1014.20 1014.27 1014.26 1014.18 1014.05 1013.89 1013.73 1013.59 1013.49 1013.45 1013.46 1013.53 1013.65 1013.79 1013.95 1014.11 1014.28 1014.44 1014.60 1014.75 1014.89 1015.03 1015.16 1015.27 1015.37 1015.45 1015.51 1015.54 1015.57 1015.57
1016.06 1015.60 1015.18 1014.82 1014.51 1014.26 1014.09 1014.00 1013.98 1014.02 1014.09 1014.18 1014.25 1014.28 1014.24 1014.15 1014.00 1013.82 1013.62 1013.45 1013.32 1013.24 1013.22 1013.28 1013.38 1013.52 1013.68 1013.84 1014.00 1014.15 1014.28 1014.39 1014.50 1014.60 1014.69 1014.77 1014.85 1014.93 1014.99 1015.05 1015.10 1015.14 1015.17
1016.70 1016.23 1015.81 1015.43 1015.11 1014.84 1014.63 1014.48 1014.39 1014.35 1014.33 1014.32 1014.29 1014.22 1014.10 1013.94 1013.74 1013.52 1013.32 1013.15 1013.04 1012.99 1013.01 1013.10 1013.23 1013.39 1013.56 1013.72 1013.85 1013.97 1014.06 1014.13 1014.19 1014.24 1014.30 1014.36 1014.42 1014.49 1014.57 1014.64 1014.71 1014.79 1014.86
1017.25 1016.77 1016.34 1015.94 1015.59 1015.29 1015.04 1014.84 1014.68 1014.57 1014.47 1014.38 1014.27 1014.13 1013.95 1013.74 1013.51 1013.28 1013.08 1012.93 1012.84 1012.83 1012.88 1012.99 1013.14 1013.30 1013.46 1013.59 1013.69 1013.76 1013.80 1013.82 1013.84 1013.86 1013.89 1013.94 1014.01 1014.09 1014.18 1014.28 1014.40 1014.52 1014.64
1017.70 1017.21 1016.76 1016.34 1015.97 1015.64 1015.35 1015.11 1014.92 1014.75 1014.60 1014.46 1014.29 1014.11 1013.90 1013.66 1013.42 1013.20 1013.01 1012.88 1012.81 1012.82 1012.89 1013.01 1013.15 1013.29 1013.41 1013.50 1013.54 1013.56 1013.54 1013.51 1013.49 1013.48 1013.49 1013.54 1013.62 1013.72 1013.84 1013.99 1014.15 1014.31 1014.48
1018.03 1017.53 1017.08 1016.66 1016.28 1015.93 1015.63 1015.37 1015.16 1014.97 1014.79 1014.62 1014.44 1014.24 1014.02 1013.78 1013.54 1013.33 1013.16 1013.05 1013.00 1013.01 1013.08 1013.18 1013.29 1013.39 1013.45 1013.47 1013.45 1013.40 1013.32 1013.24 1013.18 1013.14 1013.15 1013.19 1013.28 1013.41 1013.56 1013.74 1013.93 1014.14 1014.34
1018.25 1017.77 1017.33 1016.91 1016.54 1016.20 1015.91 1015.66 1015.45 1015.26 1015.09 1014.93 1014.76 1014.56 1014.35 1014.12 1013.91 1013.71 1013.55 1013.45 1013.40 1013.40 1013.45 1013.51 1013.57 1013.60 1013.59 1013.54 1013.45 1013.32 1013.18 1013.05 1012.95 1012.89 1012.88 1012.93 1013.03 1013.16 1013.33 1013.53 1013.73 1013.95 1014.17
1018.40 1017.95 1017.53 1017.14 1016.79 1016.48 1016.21 1015.98 1015.79 1015.64 1015.50 1015.36 1015.21 1015.04 1014.85 1014.65 1014.46 1014.28 1014.13 1014.02 1013.96 1013.94 1013.95 1013.96 1013.96 1013.92 1013.84 1013.71 1013.54 1013.34 1013.14 1012.96 1012.83 1012.74 1012.72 1012.77 1012.86 1012.99 1013.16 1013.34 1013.54 1013.74 1013.95
1018.51 1018.10 1017.71 1017.36 1017.04 1016.76 1016.52 1016.33 1016.18 1016.06 1015.96 1015.85 1015.74 1015.61 1015.45 1015.28 1015.11 1014.95 1014.80 1014.70 1014.62 1014.57 1014.54 1014.49 1014.43 1014.32 1014.16 1013.96 1013.72 1013.47 1013.22 1013.00 1012.83 1012.73 1012.69 1012.72 1012.79 1012.91 1013.05 1013.21 1013.36 1013.53 1013.69
1018.62 1018.24 1017.89 1017.57 1017.28 1017.03 1016.82 1016.66 1016.54 1016.46 1016.40 1016.33 1016.26 1016.16 1016.04 1015.90 1015.76 1015.61 1015.48 1015.37 1015.28 1015.21 1015.13 1015.04 1014.92 1014.76 1014.54 1014.28 1013.99 1013.68 1013.40 1013.15 1012.95 1012.83 1012.77 1012.78 1012.83 1012.92 1013.02 1013.12 1013.23 1013.33 1013.44
1018.74 1018.40 1018.07 1017.76 1017.49 1017.26 1017.07 1016.93 1016.84 1016.78 1016.74 1016.71 1016.66 1016.60 1016.52 1016.42 1016.30 1016.18 1016.07 1015.96 1015.87 1015.78 1015.68 1015.56 1015.40 1015.19 1014.93 1014.63 1014.29 1013.96 1013.64 1013.37 1013.15 1013.01 1012.93 1012.91 1012.94 1012.99 1013.05 1013.11 1013.16 1013.21 1013.25
1018.89 1018.55 1018.23 1017.93 1017.66 1017.42 1017.24 1017.10 1017.02 1016.97 1016.95 1016.93 1016.92 1016.89 1016.84 1016.77 1016.69 1016.60 1016.52 1016.43 1016.35 1016.26 1016.15 1016.01 1015.83 1015.59 1015.30 1014.97 1014.62 1014.26 1013.92 1013.62 1013.39 1013.23 1013.13 1013.09 1013.10 1013.12 1013.15 1013.17 1013.17 1013.17 1013.16
1019.05 1018.71 1018.38 1018.06 1017.77 1017.52 1017.31 1017.16 1017.07 1017.02 1017.00 1016.99 1017.00 1017.00 1016.98 1016.96 1016.92 1016.87 1016.82 1016.77 1016.71 1016.64 1016.53 1016.39 1016.20 1015.95 1015.65 1015.30 1014.93 1014.55 1014.19 1013.88 1013.63 1013.45 1013.34 1013.29 1013.28 1013.28 1013.29 1013.29 1013.28 1013.24 1013.20
1019.21 1018.85 1018.49 1018.14 1017.82 1017.54 1017.31 1017.14 1017.02 1016.95 1016.92 1016.92 1016.95 1016.97 1016.99 1017.01 1017.02 1017.02 1017.01 1017.00 1016.97 1016.92 1016.84 1016.71 1016.52 1016.27 1015.96 1015.60 1015.22 1014.82 1014.45 1014.12 1013.85 1013.66 1013.53 1013.47 1013.45 1013.46 1013.47 1013.47 1013.45 1013.41 1013.36
1019.36 1018.97 1018.59 1018.21 1017.85 1017.53 1017.26 1017.05 1016.91 1016.82 1016.78 1016.78 1016.81 1016.86 1016.91 1016.97 1017.03 1017.08 1017.13 1017.16 1017.17 1017.16 1017.09 1016.98 1016.80 1016.55 1016.24 1015.88 1015.48 1015.08 1014.69 1014.34 1014.06 1013.85 1013.71 1013.64 1013.62 1013.64 1013.66 1013.68 1013.68 1013.66 1013.63
1019.49 1019.09 1018.67 1018.26 1017.87 1017.51 1017.21 1016.97 1016.79 1016.68 1016.63 1016.63 1016.67 1016.74 1016.83 1016.92 1017.03 1017.12 1017.22 1017.29 1017.34 1017.35 1017.32 1017.22 1017.05 1016.82 1016.51 1016.15 1015.76 1015.34 1014.95 1014.59 1014.29 1014.07 1013.91 1013.84 1013.82 1013.84 1013.89 1013.94 1013.97 1013.98 1013.97
1019.61 1019.19 1018.76 1018.33 1017.91 1017.53 1017.20 1016.93 1016.73 1016.60 1016.54 1016.53 1016.58 1016.66 1016.78 1016.91 1017.04 1017.18 1017.31 1017.42 1017.50 1017.54 1017.53 1017.45 1017.30 1017.08 1016.79 1016.45 1016.06 1015.65 1015.26 1014.90 1014.59 1014.36 1014.20 1014.12 1014.10 1014.13 1014.19 1014.26 1014.32 1014.36 1014.38
Thickness
5772 5780 5783 5787 5789 5792 5795 5795 5790 5787 5782 5775 5769 5764 5761 5761 5759 5757 5754 5751 5749 5748 5746 5744 5743 5741 5739 5737 5736 5733 5731 5728 5730 5727 5725 5727 5726 5728 5723 5721 5721 5720 5717
5759 5768 5775 5780 5784 5786 5790 5792 5789 5785 5780 5774 5769 5764 5760 5756 5754 5751 5748 5745 5744 5743 5743 5742 5739 5737 5735 5733 5733 5730 5726 5725 5725 5722 5717 5715 5718 5716 5720 5717 5714 5715 5712
5742 5752 5761 5768 5775 5779 5782 5787 5788 5782 5775 5769 5764 5759 5753 5748 5745 5743 5741 5740 5738 5738 5737 5737 5736 5734 5733 5730 5729 5728 5723 5718 5720 5722 5715 5707 5704 5711 5714 5713 5710 5708 5707
5730 5738 5746 5753 5760 5768 5775 5779 5780 5775 5768 5761 5755 5750 5743 5737 5737 5737 5737 5735 5733 5732 5731 5731 5731 5731 5730 5728 5727 5726 5723 5717 5713 5714 5714 5713 5710 5701 5701 5704 5706 5704 5701
5718 5725 5732 5739 5745 5752 5760 5765 5766 5763 5757 5751 5747 5741 5732 5727 5726 5727 5728 5728 5726 5726 5726 5725 5725 5726 5725 5724 5723 5722 5719 5716 5711 5708 5707 5705 5703 5702 5696 5692 5694 5695 5695
5707 5714 5721 5727 5731 5736 5742 5746 5747 5745 5743 5739 5738 5734 5724 5716 5712 5712 5715 5716 5717 5719 5720 5719 5719 5719 5719 5719 5718 5716 5714 5712 5709 5705 5703 5699 5697 5695 5692 5687 5685 5686 5690
5696 5702 5707 5712 5715 5718 5723 5728 5730 5729 5728 5726 5726 5723 5716 5708 5703 5702 5703 5704 5706 5709 5711 5712 5712 5713 5714 5713 5712 5710 5709 5706 5703 5700 5698 5695 5693 5692 5689 5684 5681 5681 5684
5686 5691 5694 5698 5700 5704 5707 5711 5714 5714 5714 5713 5711 5711 5707 5699 5695 5695 5694 5694 5697 5701 5703 5703 5705 5706 5707 5706 5705 5703 5702 5701 5698 5695 5692 5689 5688 5686 5684 5681 5678 5675 5676
5676 5681 5683 5685 5687 5690 5693 5697 5699 5701 5701 5701 5698 5697 5694 5689 5687 5687 5688 5688 5690 5694 5696 5697 5699 5700 5700 5699 5698 5695 5695 5693 5691 5689 5688 5685 5684 5682 5680 5679 5677 5672 5670
5668 5672 5673 5674 5676 5679 5682 5685 5687 5688 5690 5690 5687 5686 5684 5681 5679 5680 5681 5683 5687 5690 5691 5694 5695 5695 5694 5692 5690 5688 5687 5685 5683 5682 5681 5681 5680 5678 5677 5676 5676 5674 5671
5660 5662 5663 5664 5666 5669 5671 5673 5675 5677 5679 5679 5678 5677 5677 5676 5675 5676 5679 5681 5685 5688 5689 5691 5692 5692 5690 5687 5683 5682 5680 5678 5678 5678 5677 5677 5676 5674 5674 5674 5673 5672 5670
5652 5655 5656 5658 5660 5662 5663 5665 5667 5669 5670 5671 5672 5671 5672 5673 5674 5676 5678 5681 5684 5687 5688 5689 5688 5688 5685 5683 5681 5677 5675 5674 5674 5674 5673 5673 5672 5671 5672 5671 5671 5670 5669
5645 5648 5650 5652 5654 5657 5659 5661 5663 5665 5666 5668 5668 5668 5670 5672 5674 5676 5678 5680 5683 5684 5684 5685 5684 5682 5680 5679 5677 5675 5673 5673 5672 5671 5670 5670 5669 5667 5669 5669 5669 5668 5668
5639 5641 5643 5646 5650 5652 5655 5658 5660 5663 5665 5665 5666 5666 5668 5669 5671 5674 5675 5677 5679 5680 5680 5681 5680 5678 5676 5675 5673 5672 5671 5669 5669 5668 5666 5665 5665 5665 5667 5667 5666 5666 5665
5634 5637 5640 5643 5647 5649 5651 5653 5655 5658 5661 5662 5662 5663 5665 5667 5669 5670 5671 5673 5673 5674 5674 5674 5674 5673 5671 5671 5670 5668 5666 5665 5664 5664 5664 5663 5660 5659 5661 5662 5663 5662 5661
5633 5636 5639 5642 5645 5648 5650 5651 5652 5654 5656 5657 5657 5659 5661 5662 5663 5664 5665 5666 5665 5665 5665 5665 5665 5665 5665 5662 5659 5659 5660 5660 5660 5660 5660 5659 5654 5653 5652 5654 5655 5656 5658
5633 5637 5639 5642 5644 5647 5649 5650 5651 5653 5654 5654 5654 5655 5656 5656 5656 5657 5657 5657 5657 5656 5655 5655 5655 5655 5653 5652 5652 5652 5654 5655 5656 5657 5656 5654 5653 5649 5653 5650 5648 5651 5652
5636 5638 5641 5643 5646 5647 5649 5650 5650 5651 5650 5650 5649 5649 5650 5649 5649 5648 5648 5648 5648 5646 5645 5643 5643 5643 5642 5642 5645 5647 5649 5651 5650 5649 5650 5650 5650 5647 5649 5649 5650 5651 5652
5638 5641 5644 5646 5647 5647 5649 5650 5649 5648 5646 5644 5644 5644 5644 5642 5641 5640 5639 5638 5638 5636 5635 5632 5632 5632 5632 5632 5636 5639 5645 5644 5643 5643 5643 5644 5645 5640 5637 5641 5645 5646 5647
5641 5643 5646 5648 5648 5647 5647 5648 5646 5644 5641 5639 5639 5638 5636 5635 5634 5633 5632 5631 5629 5627 5626 5623 5622 5622 5623 5623 5626 5630 5636 5636 5636 5636 5636 5632 5633 5631 5630 5634 5638 5638 5642
5642 5645 5647 5647 5647 5647 5647 5647 5645 5641 5639 5637 5635 5634 5632 5631 5629 5628 5626 5625 5623 5621 5620 5618 5616 5615 5614 5615 5615 5617 5623 5625 5627 5628 5628 5628 5623 5623 5624 5626 5631 5633 5634
5645 5645 5647 5648 5649 5648 5647 5646 5643 5641 5639 5636 5634 5632 5630 5628 5626 5624 5621 5619 5617 5616 5614 5613 5610 5609 5608 5606 5607 5607 5608 5610 5615 5616 5617 5617 5614 5616 5618 5621 5624 5625 5626
5646 5646 5647 5648 5651 5652 5649 5647 5645 5643 5641 5638 5635 5633 5631 5628 5625 5622 5619 5616 5613 5611 5609 5606 5604 5603 5603 5602 5601 5600 5601 5601 5603 5605 5603 5604 5606 5608 5613 5615 5618 5621 5625
5646 5647 5649 5651 5653 5654 5653 5652 5650 5647 5645 5642 5638 5636 5634 5631 5627 5620 5616 5613 5610 5606 5603 5599 5597 5597 5598 5597 5596 5597 5599 5597 5597 5597 5596 5595 5597 5600 5604 5609 5614 5618 5621
5648 5650 5650 5651 5653 5657 5657 5657 5655 5653 5650 5647 5642 5640 5636 5632 5628 5621 5614 5610 5605 5599 5595 5592 5591 5590 5590 5588 5586 5588 5592 5592 5591 5589 5590 5591 5592 5595 5599 5603 5608 5612 5616
5650 5652 5653 5653 5657 5660 5661 5660 5658 5657 5655 5652 5646 5642 5638 5634 5630 5626 5619 5606 5602 5595 5590 5586 5584 5585 5581 5582 5584 5585 5586 5586 5586 5586 5585 5585 5586 5589 5592 5597 5602 5606 5610